Aeroporto :







RITROVATECI SU...

 
LOGIN :

Iscrizione | Disclaimer

   EN    FR    IT 

 









Sommario :    VFR   VFR Marginale   IFR   IFR Intensivo   IFR Molto Intensivo
Visibilità : 
Base nubi : 
>= 8 km
>= 3000ft
5 / 8 km
1000 / 3000 ft
1500m / 5 km
500 / 1000 ft
800 / 1500m
200 / 500 ft
< 800m
< 200 ft
Simboli :   Temporali  Nebbia  Neve Forte  Precipitazioni Forti  Vento > 20 kt






- Altitudine del aeroporto : 13 ft
- Codice IATA : SXM


TNCM - Princess Juliana Int.

ULTIMO METAR :
  • 061300Z 09009KT 9999 SCT018 30/23 Q1018 NOSIG

METARs OBSOLETI :
  • 061200Z 08007KT 060V120 9999 VCSH FEW018 29/22 Q1017 NOSIG
  • 061100Z 08006KT 9999 FEW016 28/23 Q1017 RERA NOSIG

TAF TNCM
Valido dal 06 a 12 ore il 07 a 12 ore UTC


061135Z 0612/0712 10010KT P6SM FEW020
FIR TJZS / America del Nord



MetMap, La meteo Aeronautica in un colpo d'occhio ! - Copyright ORBIFLY Dicembre 2007 - Disclaimer

ORBIFLY MET'MAP TEAM :

Programmazione e sviluppo : Alexandra Zaïnal
Concezione : Baudouin d'Aumeries
Aiuto per la programmazione : Marc-Olivier Méhu
Supporto tecnico e logistico : Manuel Goepfert
Aiuto per la traduzione : Arnaldo La Scala

Contatto : metmap@orbifly.com




FONTI E CREDITI :

   NOAA